Flag for Brazil Weather past 2 weeks in Londrina, Paraná, Brazil

Now
82 °F

Passing clouds.


Feels Like: 85 °F
Forecast: 67 / 84 °F
Wind: 7 mph from Northeast

Location: Londrina Aeroporto


UV Index: 5 (Moderate)

Visibility: N/A


Pressure: 29.95 "Hg

Humidity: 58%

Dew point: 66 °F

Location of LondrinaLocation

Historic Weather in Londrina

°F

Londrina temperature yesterday

Maximum temperature yesterday: 82 °F (at 1:00 PM)
Minimum temperature yesterday: 64 °F (at 6:00 AM)
Average temperature yesterday: 74 °F

Past Weeks' High & Low Weather Summary

 TemperatureHumidityPressure
High90 °F (Apr 7, 2:00 PM)100% (Apr 9, 5:00 PM)30.18 "Hg (Apr 9, 5:00 PM)
Low64 °F (Apr 15, 3:00 AM)41% (Apr 7, 4:00 PM)26.90 "Hg (Apr 6, 2:00 AM)
Average75 °F79%30.01 "Hg
* Reported Apr 3 2:00 PM — Apr 18 2:00 PM, Londrina, Weather by CustomWeather, © 2014

Note: Actual official high and low records may vary slightly from our data, if they occured in-between our weather recording intervals... More about our weather records

Advertising

Historic Weather Conditions — Data for Previous 24 hours

 ConditionsComfort  
Time TempWeatherWind HumidityBarometerVisibility
2:00 PM
Apr 18
81 °FPassing clouds.6 mph62%29.95 "HgN/A
1:00 PM79 °FPassing clouds.7 mph70%29.98 "HgN/A
12:00 PM77 °FSunny.7 mph69%30.01 "Hg10 mi
11:00 AM75 °FSunny.6 mph74%30.04 "Hg10 mi
10:00 AM73 °FSunny.2 mph78%30.04 "Hg10 mi
9:00 AM72 °FSunny.3 mph83%30.04 "Hg10 mi
8:00 AM70 °FSunny.3 mph88%30.01 "Hg10 mi
7:00 AM68 °FPassing clouds.5 mph94%30.01 "HgN/A
6:00 AM68 °FSunny.3 mph88%30.01 "Hg10 mi
5:00 AM68 °FClear.2 mph94%30.01 "Hg10 mi
4:00 AM70 °FClear.3 mph94%29.98 "Hg10 mi
3:00 AM70 °FClear.2 mph94%29.98 "Hg10 mi
2:00 AM70 °FClear.1 mph94%30.01 "Hg10 mi
1:00 AM70 °FClear.2 mph94%30.01 "Hg10 mi
12:00 AM72 °FClear.3 mph88%30.04 "Hg10 mi
11:00 PM
Apr 17
73 °FClear.3 mph83%30.04 "Hg10 mi
10:00 PM75 °FClear.3 mph78%30.01 "Hg10 mi
9:00 PM73 °FClear.3 mph89%30.01 "Hg10 mi
8:00 PM77 °FClear.2 mph74%30.01 "Hg10 mi
7:00 PM79 °FPassing clouds.3 mph70%29.98 "HgN/A
6:00 PM81 °FPassing clouds.3 mph66%29.98 "HgN/A
5:00 PM81 °FPassing clouds.5 mph66%29.98 "HgN/A
4:00 PM82 °FScattered clouds.5 mph58%29.98 "HgN/A
3:00 PM82 °FScattered clouds.7 mph62%29.98 "HgN/A
Weather by CustomWeather, © 2014

See weather overview